Time,TemperatureF,DewpointF,PressureIn,WindDirection,WindDirectionDegrees,WindSpeedMPH,WindSpeedGustMPH,Humidity,HourlyPrecipIn,Conditions,Clouds,dailyrainin,SoftwareType,DateUTC
2013-04-09 00:03:00,65.0,49.0,-100.00,West,265,5.0,12.0,55,0.00,,,-99.99,,2013-04-09 04:03:00,
2013-04-09 00:13:00,65.0,49.0,-100.00,SW,235,3.0,15.0,56,0.00,,,-99.99,,2013-04-09 04:13:00,
2013-04-09 00:23:00,65.0,50.0,-100.00,SW,230,5.0,12.0,56,0.00,,,-99.99,,2013-04-09 04:23:00,
2013-04-09 00:32:00,65.0,51.0,-100.00,West,275,7.0,13.0,58,0.00,,,-99.99,,2013-04-09 04:32:00,
2013-04-09 00:42:00,65.0,51.0,-100.00,West,265,6.0,17.0,60,0.00,,,-99.99,,2013-04-09 04:42:00,
2013-04-09 00:52:00,65.0,51.0,-100.00,West,265,6.0,17.0,60,0.00,,,-99.99,,2013-04-09 04:52:00,
2013-04-09 01:02:00,64.0,53.0,-100.00,West,265,5.0,10.0,68,0.00,,,-99.99,,2013-04-09 05:02:00,
2013-04-09 01:12:00,64.0,54.0,-100.00,West,270,6.0,12.0,69,0.00,,,-99.99,,2013-04-09 05:12:00,
2013-04-09 01:22:00,64.0,54.0,-100.00,West,280,7.0,12.0,70,0.00,,,-99.99,,2013-04-09 05:22:00,
2013-04-09 01:32:00,63.0,55.0,-100.00,West,270,7.0,13.0,72,0.00,,,-99.99,,2013-04-09 05:32:00,
2013-04-09 01:42:00,63.0,55.0,-100.00,WSW,250,6.0,11.0,73,0.00,,,-99.99,,2013-04-09 05:42:00,
2013-04-09 01:52:00,63.0,55.0,-100.00,West,270,3.0,7.0,75,0.00,,,-99.99,,2013-04-09 05:52:00,
2013-04-09 02:02:00,62.0,54.0,-100.00,WNW,300,4.0,11.0,76,0.00,,,-99.99,,2013-04-09 06:02:00,
2013-04-09 02:12:00,60.0,49.0,-100.00,WNW,290,6.0,12.0,66,0.00,,,-99.99,,2013-04-09 06:12:00,
2013-04-09 02:22:00,60.0,47.0,-100.00,NW,305,4.0,8.0,62,0.00,,,-99.99,,2013-04-09 06:22:00,
2013-04-09 02:32:00,60.0,47.0,-100.00,West,280,4.0,7.0,61,0.00,,,-99.99,,2013-04-09 06:32:00,
2013-04-09 02:42:00,60.0,46.0,-100.00,West,265,6.0,12.0,59,0.00,,,-99.99,,2013-04-09 06:42:00,
2013-04-09 02:52:00,60.0,46.0,-100.00,NW,310,4.0,8.0,58,0.00,,,-99.99,,2013-04-09 06:52:00,
2013-04-09 03:02:00,60.0,45.0,-100.00,WNW,300,4.0,9.0,58,0.00,,,-99.99,,2013-04-09 07:02:00,
2013-04-09 03:13:00,59.0,45.0,-100.00,West,270,4.0,6.0,59,0.00,,,-99.99,,2013-04-09 07:13:00,
2013-04-09 03:22:00,59.0,45.0,-100.00,WNW,285,4.0,6.0,59,0.00,,,-99.99,,2013-04-09 07:22:00,
2013-04-09 03:32:00,59.0,45.0,-100.00,WNW,285,4.0,6.0,59,0.00,,,-99.99,,2013-04-09 07:32:00,
2013-04-09 03:42:00,58.0,44.0,-100.00,West,280,2.0,4.0,60,0.00,,,-99.99,,2013-04-09 07:42:00,
2013-04-09 03:52:00,58.0,44.0,-100.00,WNW,300,2.0,6.0,61,0.00,,,-99.99,,2013-04-09 07:52:00,
2013-04-09 04:03:00,57.0,44.0,-100.00,West,280,2.0,4.0,62,0.00,,,-99.99,,2013-04-09 08:03:00,
2013-04-09 04:13:00,57.0,44.0,-100.00,WNW,300,4.0,7.0,61,0.00,,,-99.99,,2013-04-09 08:13:00,
2013-04-09 04:22:00,56.0,43.0,-100.00,WNW,290,2.0,6.0,61,0.00,,,-99.99,,2013-04-09 08:22:00,
2013-04-09 04:32:00,55.0,42.0,-100.00,WNW,300,4.0,7.0,61,0.00,,,-99.99,,2013-04-09 08:32:00,
2013-04-09 04:42:00,55.0,43.0,-100.00,NW,310,2.0,7.0,63,0.00,,,-99.99,,2013-04-09 08:42:00,
2013-04-09 04:52:00,54.0,43.0,-100.00,West,275,1.0,7.0,65,0.00,,,-99.99,,2013-04-09 08:52:00,
2013-04-09 05:02:00,53.0,43.0,-100.00,North,350,2.0,7.0,67,0.00,,,-99.99,,2013-04-09 09:02:00,
2013-04-09 05:12:00,53.0,42.0,-100.00,NW,305,1.0,4.0,68,0.00,,,-99.99,,2013-04-09 09:12:00,
2013-04-09 05:22:00,52.0,43.0,-100.00,North,0,4.0,7.0,70,0.00,,,-99.99,,2013-04-09 09:22:00,
2013-04-09 05:33:00,51.0,42.0,-100.00,North,350,1.0,5.0,70,0.00,,,-99.99,,2013-04-09 09:33:00,
2013-04-09 05:43:00,51.0,42.0,-100.00,North,0,3.0,6.0,72,0.00,,,-99.99,,2013-04-09 09:43:00,
2013-04-09 05:52:00,50.0,42.0,-100.00,NNE,15,3.0,6.0,73,0.00,,,-99.99,,2013-04-09 09:52:00,
2013-04-09 06:13:00,49.0,43.0,-100.00,WNW,285,2.0,5.0,78,0.00,,,-99.99,,2013-04-09 10:13:00,
2013-04-09 06:23:00,49.0,43.0,-100.00,NNW,340,1.0,4.0,79,0.00,,,-99.99,,2013-04-09 10:23:00,
2013-04-09 06:33:00,49.0,43.0,-100.00,West,265,1.0,4.0,81,0.00,,,-99.99,,2013-04-09 10:33:00,
2013-04-09 06:43:00,48.0,43.0,-100.00,NW,325,0.0,4.0,82,0.00,,,-99.99,,2013-04-09 10:43:00,
2013-04-09 06:52:00,47.0,43.0,-100.00,SE,135,0.0,2.0,83,0.00,,,-99.99,,2013-04-09 10:52:00,
2013-04-09 07:02:00,47.0,43.0,-100.00,NW,305,1.0,4.0,85,0.00,,,-99.99,,2013-04-09 11:02:00,
2013-04-09 07:12:00,47.0,43.0,-100.00,West,270,1.0,2.0,85,0.00,,,-99.99,,2013-04-09 11:12:00,
2013-04-09 07:22:00,46.0,43.0,-100.00,West,265,0.0,1.0,87,0.00,,,-99.99,,2013-04-09 11:22:00,
2013-04-09 07:32:00,46.0,42.0,-100.00,East,85,0.0,2.0,88,0.00,,,-99.99,,2013-04-09 11:32:00,
2013-04-09 07:42:00,46.0,43.0,-100.00,WSW,240,0.0,1.0,89,0.00,,,-99.99,,2013-04-09 11:42:00,
2013-04-09 07:52:00,46.0,43.0,-100.00,NW,325,0.0,2.0,90,0.00,,,-99.99,,2013-04-09 11:52:00,
2013-04-09 08:02:00,47.0,44.0,-100.00,North,350,1.0,4.0,91,0.00,,,-99.99,,2013-04-09 12:02:00,
2013-04-09 08:12:00,47.0,45.0,-100.00,NW,315,1.0,6.0,91,0.00,,,-99.99,,2013-04-09 12:12:00,
2013-04-09 08:22:00,47.0,45.0,-100.00,NNE,30,3.0,6.0,91,0.00,,,-99.99,,2013-04-09 12:22:00,
2013-04-09 08:32:00,47.0,45.0,-100.00,NNE,30,5.0,8.0,91,0.00,,,-99.99,,2013-04-09 12:32:00,
2013-04-09 08:42:00,47.0,45.0,-100.00,NE,35,1.0,7.0,91,0.00,,,-99.99,,2013-04-09 12:42:00,
2013-04-09 08:52:00,47.0,45.0,-100.00,NE,35,1.0,7.0,91,0.00,,,-99.99,,2013-04-09 12:52:00,
2013-04-09 09:03:00,49.0,46.0,-100.00,NE,40,1.0,6.0,90,0.00,,,-99.99,,2013-04-09 13:03:00,
2013-04-09 09:12:00,49.0,46.0,-100.00,ENE,70,2.0,4.0,89,0.00,,,-99.99,,2013-04-09 13:12:00,
2013-04-09 09:23:00,50.0,46.0,-100.00,ESE,120,2.0,6.0,85,0.00,,,-99.99,,2013-04-09 13:23:00,
2013-04-09 09:33:00,51.0,46.0,-100.00,NE,35,1.0,6.0,83,0.00,,,-99.99,,2013-04-09 13:33:00,
2013-04-09 09:43:00,52.0,46.0,-100.00,NE,50,1.0,6.0,79,0.00,,,-99.99,,2013-04-09 13:43:00,
2013-04-09 10:03:00,53.0,45.0,-100.00,SE,130,2.0,6.0,73,0.00,,,-99.99,,2013-04-09 14:03:00,
2013-04-09 10:12:00,54.0,45.0,-100.00,South,180,1.0,6.0,70,0.00,,,-99.99,,2013-04-09 14:12:00,
2013-04-09 10:22:00,55.0,44.0,-100.00,East,95,2.0,11.0,66,0.00,,,-99.99,,2013-04-09 14:22:00,
2013-04-09 10:32:00,56.0,44.0,-100.00,SSE,160,4.0,9.0,63,0.00,,,-99.99,,2013-04-09 14:32:00,
2013-04-09 10:43:00,57.0,43.0,-100.00,South,185,2.0,9.0,60,0.00,,,-99.99,,2013-04-09 14:43:00,
2013-04-09 10:52:00,57.0,43.0,-100.00,SSE,155,6.0,9.0,58,0.00,,,-99.99,,2013-04-09 14:52:00,
2013-04-09 11:02:00,58.0,42.0,-100.00,SSE,155,5.0,9.0,56,0.00,,,-99.99,,2013-04-09 15:02:00,
2013-04-09 11:13:00,60.0,43.0,-100.00,ESE,120,3.0,8.0,53,0.00,,,-99.99,,2013-04-09 15:13:00,
2013-04-09 11:22:00,61.0,42.0,-100.00,South,185,4.0,8.0,50,0.00,,,-99.99,,2013-04-09 15:22:00,
2013-04-09 11:34:00,61.0,42.0,-100.00,South,170,3.0,9.0,49,0.00,,,-99.99,,2013-04-09 15:34:00,
2013-04-09 11:43:00,62.0,42.0,-100.00,SSE,155,4.0,6.0,47,0.00,,,-99.99,,2013-04-09 15:43:00,
2013-04-09 11:53:00,63.0,42.0,-100.00,SE,135,3.0,7.0,45,0.00,,,-99.99,,2013-04-09 15:53:00,
2013-04-09 12:03:00,65.0,42.0,-100.00,SSE,165,7.0,9.0,42,0.00,,,-99.99,,2013-04-09 16:03:00,
2013-04-09 12:13:00,66.0,42.0,-100.00,South,170,1.0,7.0,41,0.00,,,-99.99,,2013-04-09 16:13:00,
2013-04-09 12:23:00,66.0,42.0,-100.00,South,185,3.0,9.0,41,0.00,,,-99.99,,2013-04-09 16:23:00,
2013-04-09 12:33:00,67.0,42.0,-100.00,South,175,4.0,9.0,40,0.00,,,-99.99,,2013-04-09 16:33:00,
2013-04-09 12:42:00,69.0,43.0,-100.00,ENE,60,1.0,7.0,39,0.00,,,-99.99,,2013-04-09 16:42:00,
2013-04-09 12:53:00,69.0,44.0,-100.00,South,185,4.0,7.0,39,0.00,,,-99.99,,2013-04-09 16:53:00,
2013-04-09 13:02:00,69.0,44.0,-100.00,SE,125,3.0,9.0,39,0.00,,,-99.99,,2013-04-09 17:02:00,
2013-04-09 13:13:00,70.0,44.0,-100.00,South,175,7.0,11.0,39,0.00,,,-99.99,,2013-04-09 17:13:00,
2013-04-09 13:23:00,71.0,45.0,-100.00,ESE,120,3.0,9.0,38,0.00,,,-99.99,,2013-04-09 17:23:00,
2013-04-09 13:32:00,73.0,45.0,-100.00,SE,140,4.0,7.0,37,0.00,,,-99.99,,2013-04-09 17:32:00,
2013-04-09 13:42:00,74.0,47.0,-100.00,SSE,160,4.0,12.0,37,0.00,,,-99.99,,2013-04-09 17:42:00,
2013-04-09 13:53:00,74.0,47.0,-100.00,South,185,5.0,11.0,37,0.00,,,-99.99,,2013-04-09 17:53:00,
2013-04-09 14:02:00,75.0,47.0,-100.00,South,190,4.0,7.0,37,0.00,,,-99.99,,2013-04-09 18:02:00,
2013-04-09 14:13:00,73.0,47.0,-100.00,South,170,7.0,12.0,39,0.00,,,-99.99,,2013-04-09 18:13:00,
2013-04-09 14:22:00,73.0,47.0,-100.00,South,175,6.0,13.0,40,0.00,,,-99.99,,2013-04-09 18:22:00,
2013-04-09 14:33:00,73.0,48.0,-100.00,SSE,160,6.0,13.0,40,0.00,,,-99.99,,2013-04-09 18:33:00,
2013-04-09 14:43:00,76.0,49.0,-100.00,SSE,165,4.0,12.0,38,0.00,,,-99.99,,2013-04-09 18:43:00,
2013-04-09 14:52:00,76.0,48.0,-100.00,South,180,7.0,12.0,37,0.00,,,-99.99,,2013-04-09 18:52:00,
2013-04-09 15:03:00,76.0,48.0,-100.00,South,180,7.0,12.0,37,0.00,,,-99.99,,2013-04-09 19:03:00,
2013-04-09 15:12:00,76.0,48.0,-100.00,South,180,7.0,12.0,37,0.00,,,-99.99,,2013-04-09 19:12:00,
2013-04-09 15:22:00,75.0,48.0,-100.00,SSE,165,4.0,14.0,38,0.00,,,-99.99,,2013-04-09 19:22:00,
2013-04-09 15:32:00,75.0,49.0,-100.00,South,175,4.0,17.0,39,0.00,,,-99.99,,2013-04-09 19:32:00,
2013-04-09 15:42:00,75.0,49.0,-100.00,South,175,4.0,17.0,39,0.00,,,-99.99,,2013-04-09 19:42:00,
2013-04-09 15:52:00,75.0,50.0,-100.00,South,185,6.0,12.0,40,0.00,,,-99.99,,2013-04-09 19:52:00,
2013-04-09 16:03:00,76.0,50.0,-100.00,SSE,165,6.0,12.0,40,0.00,,,-99.99,,2013-04-09 20:03:00,
2013-04-09 16:12:00,76.0,50.0,-100.00,SSE,165,6.0,11.0,40,0.00,,,-99.99,,2013-04-09 20:12:00,
2013-04-09 16:22:00,77.0,50.0,-100.00,South,175,4.0,12.0,38,0.00,,,-99.99,,2013-04-09 20:22:00,
2013-04-09 16:34:00,78.0,50.0,-100.00,South,180,4.0,10.0,38,0.00,,,-99.99,,2013-04-09 20:34:00,
2013-04-09 16:43:00,78.0,50.0,-100.00,SSW,200,8.0,14.0,37,0.00,,,-99.99,,2013-04-09 20:43:00,
2013-04-09 16:52:00,79.0,50.0,-100.00,SSE,165,8.0,16.0,36,0.00,,,-99.99,,2013-04-09 20:52:00,
2013-04-09 17:02:00,80.0,50.0,-100.00,South,185,7.0,14.0,34,0.00,,,-99.99,,2013-04-09 21:02:00,
2013-04-09 17:13:00,80.0,50.0,-100.00,SSW,195,6.0,15.0,35,0.00,,,-99.99,,2013-04-09 21:13:00,
2013-04-09 17:22:00,80.0,50.0,-100.00,SSW,195,6.0,15.0,35,0.00,,,-99.99,,2013-04-09 21:22:00,
2013-04-09 17:33:00,79.0,49.0,-100.00,SSW,200,7.0,15.0,35,0.00,,,-99.99,,2013-04-09 21:33:00,
2013-04-09 17:42:00,79.0,49.0,-100.00,SSW,200,7.0,15.0,35,0.00,,,-99.99,,2013-04-09 21:42:00,
2013-04-09 17:52:00,79.0,50.0,-100.00,SSW,205,6.0,12.0,35,0.00,,,-99.99,,2013-04-09 21:52:00,
2013-04-09 18:03:00,78.0,49.0,-100.00,SSW,200,6.0,14.0,36,0.00,,,-99.99,,2013-04-09 22:03:00,
2013-04-09 18:13:00,78.0,50.0,-100.00,SW,225,6.0,14.0,36,0.00,,,-99.99,,2013-04-09 22:13:00,
2013-04-09 18:23:00,78.0,50.0,-100.00,SSW,210,4.0,13.0,36,0.00,,,-99.99,,2013-04-09 22:23:00,
2013-04-09 18:33:00,78.0,50.0,-100.00,South,185,5.0,12.0,36,0.00,,,-99.99,,2013-04-09 22:33:00,
2013-04-09 18:42:00,78.0,50.0,-100.00,South,190,5.0,12.0,36,0.00,,,-99.99,,2013-04-09 22:42:00,
2013-04-09 18:53:00,78.0,49.0,-100.00,SW,215,4.0,14.0,36,0.00,,,-99.99,,2013-04-09 22:53:00,
2013-04-09 19:03:00,78.0,49.0,-100.00,SSW,210,6.0,14.0,36,0.00,,,-99.99,,2013-04-09 23:03:00,
2013-04-09 19:12:00,78.0,49.0,-100.00,South,180,4.0,16.0,35,0.00,,,-99.99,,2013-04-09 23:12:00,
2013-04-09 19:23:00,78.0,49.0,-100.00,South,180,4.0,15.0,36,0.00,,,-99.99,,2013-04-09 23:23:00,
2013-04-09 19:32:00,78.0,49.0,-100.00,West,260,4.0,10.0,36,0.00,,,-99.99,,2013-04-09 23:32:00,
2013-04-09 19:42:00,78.0,49.0,-100.00,SW,230,4.0,12.0,36,0.00,,,-99.99,,2013-04-09 23:42:00,
2013-04-09 19:52:00,77.0,48.0,-100.00,SSW,205,3.0,11.0,36,0.00,,,-99.99,,2013-04-09 23:52:00,
2013-04-09 20:03:00,76.0,48.0,-100.00,SSW,195,3.0,12.0,36,0.00,,,-99.99,,2013-04-10 00:03:00,
2013-04-09 20:12:00,76.0,48.0,-100.00,SSW,195,3.0,12.0,36,0.00,,,-99.99,,2013-04-10 00:12:00,
2013-04-09 20:23:00,75.0,48.0,-100.00,SW,220,2.0,11.0,37,0.00,,,-99.99,,2013-04-10 00:23:00,
2013-04-09 20:33:00,75.0,48.0,-100.00,SW,225,4.0,16.0,37,0.00,,,-99.99,,2013-04-10 00:33:00,
2013-04-09 20:42:00,74.0,48.0,-100.00,SW,225,3.0,10.0,38,0.00,,,-99.99,,2013-04-10 00:42:00,
2013-04-09 20:52:00,74.0,48.0,-100.00,South,190,3.0,8.0,39,0.00,,,-99.99,,2013-04-10 00:52:00,
2013-04-09 21:02:00,74.0,48.0,-100.00,SW,220,2.0,6.0,39,0.00,,,-99.99,,2013-04-10 01:02:00,
2013-04-09 21:12:00,73.0,48.0,-100.00,South,190,3.0,9.0,40,0.00,,,-99.99,,2013-04-10 01:12:00,
2013-04-09 21:23:00,73.0,48.0,-100.00,SSW,200,2.0,7.0,40,0.00,,,-99.99,,2013-04-10 01:23:00,
2013-04-09 21:32:00,73.0,48.0,-100.00,South,170,3.0,6.0,41,0.00,,,-99.99,,2013-04-10 01:32:00,
2013-04-09 21:42:00,72.0,48.0,-100.00,SW,215,2.0,6.0,42,0.00,,,-99.99,,2013-04-10 01:42:00,
2013-04-09 21:52:00,71.0,48.0,-100.00,SSW,200,2.0,7.0,43,0.00,,,-99.99,,2013-04-10 01:52:00,
2013-04-09 22:02:00,71.0,48.0,-100.00,SSW,195,1.0,5.0,43,0.00,,,-99.99,,2013-04-10 02:02:00,
2013-04-09 22:12:00,71.0,48.0,-100.00,SSE,165,2.0,7.0,43,0.00,,,-99.99,,2013-04-10 02:12:00,
2013-04-09 22:22:00,71.0,48.0,-100.00,SW,230,2.0,6.0,43,0.00,,,-99.99,,2013-04-10 02:22:00,
2013-04-09 22:33:00,71.0,48.0,-100.00,SSW,195,3.0,6.0,44,0.00,,,-99.99,,2013-04-10 02:33:00,
2013-04-09 22:43:00,71.0,48.0,-100.00,SSW,210,2.0,6.0,44,0.00,,,-99.99,,2013-04-10 02:43:00,
2013-04-09 22:52:00,71.0,48.0,-100.00,WSW,240,2.0,5.0,45,0.00,,,-99.99,,2013-04-10 02:52:00,
2013-04-09 23:03:00,71.0,49.0,-100.00,South,185,2.0,6.0,45,0.00,,,-99.99,,2013-04-10 03:03:00,
2013-04-09 23:12:00,71.0,49.0,-100.00,South,190,2.0,7.0,45,0.00,,,-99.99,,2013-04-10 03:12:00,
2013-04-09 23:22:00,71.0,49.0,-100.00,SW,235,2.0,7.0,44,0.00,,,-99.99,,2013-04-10 03:22:00,
2013-04-09 23:33:00,72.0,49.0,-100.00,SW,230,4.0,9.0,44,0.00,,,-99.99,,2013-04-10 03:33:00,
2013-04-09 23:43:00,71.0,49.0,-100.00,SW,215,3.0,9.0,44,0.00,,,-99.99,,2013-04-10 03:43:00,
2013-04-09 23:52:00,71.0,49.0,-100.00,West,265,4.0,10.0,44,0.00,,,-99.99,,2013-04-10 03:52:00,